User: anonymous   Login
Location: Unspecified
(0.0000°N, 0.0000°E)
Time: 20:55:15
(UTC+00:00)
Language:

SAR-Lupe-5 - Orbit

View from above orbital plane
View from above orbital plane
View from above satellite
View from above satellite

Ground track
Ground track

The orbit data is extracted from the following two-line orbital elements,

1 33244U 08036A   18125.82407988 0.00000800  00000-0  29682-4 0    08
2 33244  98.1646 340.2913 0001996  45.8408 314.1590 15.27623456    02
Epoch (UTC): 05 May 2018 19:46:40
Eccentricity: 0.0001996
inclination: 98.1646°
perigee height: 481 km
apogee height: 484 km
right ascension of ascending node: 340.2913°
argument of perigee: 45.8408°
revolutions per day: 15.27623456
mean anomaly at epoch: 314.1590°
orbit number at epoch: 0

The dashed part of the orbit path shows where the satellite is in the earth's shadow,  

DLR